GW5898 Weather Reports


Display with metric or nautical units.
time (UTC)temp
F
wind
direction
speed
MPH
gust
MPH
rain 1hr
in
rain 24hr
in
rain mn
in
humidity
%
barometer
mb
20260505052013 63 138 1.0 7.0 0.00 0.00 0.00 74 1021.2
20260505051510 63 144 1.0 7.0 0.00 0.00 0.00 73 1021.1
20260505051008 64 149 5.0 9.0 0.00 0.00 0.00 73 1021.0
20260505050506 64 128 4.0 7.0 0.00 0.00 0.00 72 1021.1
20260505041433 64 131 1.0 5.0 0.00 0.00 0.00 72 1021.2
20260505040931 64 139 2.0 2.0 0.00 0.00 0.00 72 1021.3
20260505040428 64 132 0.0 2.0 0.00 0.00 0.00 73 1021.3
20260505035924 64 124 2.0 2.0 0.00 0.00 0.00 73 1021.4
20260505035421 64 130 2.0 2.0 0.00 0.00 0.00 73 1021.5
20260505034918 64 125 0.0 0.0 0.00 0.00 0.00 73 1021.4
20260505034414 64 120 0.0 2.0 0.00 0.00 0.00 73 1021.5
20260505033912 64 129 0.0 2.0 0.00 0.00 0.00 73 1021.5
20260505033408 64 115 0.0 0.0 0.00 0.00 0.00 72 1021.5
20260505032907 65 127 0.0 2.0 0.00 0.00 0.00 71 1021.6
20260505032403 65 125 0.0 2.0 0.00 0.00 0.00 70 1021.4
20260505031859 65 130 1.0 2.0 0.00 0.00 0.00 70 1021.4
20260505031356 65 126 0.0 2.0 0.00 0.00 0.00 69 1021.5
20260505030854 66 137 2.0 2.0 0.00 0.00 0.00 68 1021.5
20260505030349 66 138 4.0 7.0 0.00 0.00 0.00 68 1021.2
20260505025845 66 125 0.0 2.0 0.00 0.00 0.00 67 1021.5
20260505025343 66 136 0.0 2.0 0.00 0.00 0.00 66 1021.4
20260505024841 67 132 1.0 2.0 0.00 0.00 0.00 66 1021.0
20260505024339 67 127 2.0 2.0 0.00 0.00 0.00 66 1020.9
20260505023835 67 122 2.0 5.0 0.00 0.00 0.00 65 1021.0
20260505023332 67 128 1.0 2.0 0.00 0.00 0.00 65 1020.9
20260505022830 67 135 3.0 5.0 0.00 0.00 0.00 65 1020.9
20260505022326 67 129 3.0 5.0 0.00 0.00 0.00 64 1020.8
20260505021824 67 130 2.0 7.0 0.00 0.00 0.00 65 1020.7
20260505021320 67 150 2.0 5.0 0.00 0.00 0.00 64 1020.7
20260505020816 67 132 3.0 5.0 0.00 0.00 0.00 64 1020.8
20260505020312 68 130 1.0 5.0 0.00 0.00 0.00 64 1020.6
20260505015809 68 129 0.0 2.0 0.00 0.00 0.00 63 1020.8
20260505015306 68 136 1.0 2.0 0.00 0.00 0.00 62 1020.8
20260505014803 68 136 1.0 2.0 0.00 0.00 0.00 62 1020.8
20260505014300 69 139 1.0 2.0 0.00 0.00 0.00 61 1020.6
20260505013757 69 140 1.0 5.0 0.00 0.00 0.00 61 1020.6
20260505013254 69 163 3.0 7.0 0.00 0.00 0.00 61 1020.3
20260505012752 69 140 2.0 5.0 0.00 0.00 0.00 61 1020.5
20260505012250 69 135 3.0 5.0 0.00 0.00 0.00 60 1020.4
20260505011745 69 137 3.0 5.0 0.00 0.00 0.00 60 1020.4
20260505011242 70 128 2.0 5.0 0.00 0.00 0.00 60 1020.4
20260505010738 70 142 2.0 11.0 0.00 0.00 0.00 60 1020.3
20260505010234 70 136 2.0 5.0 0.00 0.00 0.00 59 1020.3
20260505005731 71 140 2.0 5.0 0.00 0.00 0.00 58 1020.5
20260505005228 71 133 2.0 11.0 0.00 0.00 0.00 58 1020.5
20260505004725 71 136 3.0 5.0 0.00 0.00 0.00 59 1020.4
20260505004221 71 139 2.0 2.0 0.00 0.00 0.00 58 1020.3
20260505003719 72 137 2.0 5.0 0.00 0.00 0.00 58 1020.4
20260505003217 72 141 3.0 5.0 0.00 0.00 0.00 57 1020.5
20260505002712 72 138 1.0 9.0 0.00 0.00 0.00 57 1020.6
20260505002210 73 163 4.0 7.0 0.00 0.00 0.00 56 1020.5
20260505001708 73 166 3.0 9.0 0.00 0.00 0.00 55 1020.5
20260505001205 73 127 4.0 9.0 0.00 0.00 0.00 55 1020.5
20260505000702 73 140 6.0 9.0 0.00 0.00 0.00 55 1020.4
20260505000200 73 158 5.0 11.0 0.00 0.00 0.00 54 1020.6
20260504235656 74 161 5.0 9.0 0.00 0.00 0.00 54 1020.6
20260504235152 74 134 8.0 11.0 0.00 0.00 0.00 54 1020.6
20260504234650 74 156 6.0 9.0 0.00 0.00 0.00 53 1020.7
20260504234147 74 154 5.0 7.0 0.00 0.00 0.00 54 1020.8
20260504233642 74 152 4.0 7.0 0.00 0.00 0.00 54 1020.7
20260504233138 75 139 7.0 7.0 0.00 0.00 0.00 56 1020.9
20260504232637 75 168 4.0 7.0 0.00 0.00 0.00 54 1020.7
20260504232133 75 162 7.0 9.0 0.00 0.00 0.00 53 1020.7
20260504231630 75 144 5.0 7.0 0.00 0.00 0.00 53 1020.7
20260504231126 75 134 4.0 7.0 0.00 0.00 0.00 52 1021.0
20260504230622 76 142 5.0 9.0 0.00 0.00 0.00 51 1021.1
20260504230121 76 132 6.0 11.0 0.00 0.00 0.00 50 1021.1
20260504225619 76 151 4.0 9.0 0.00 0.00 0.00 50 1021.1
20260504225115 76 158 5.0 7.0 0.00 0.00 0.00 52 1021.1
20260504224612 76 134 5.0 11.0 0.00 0.00 0.00 49 1021.1
20260504224109 77 128 7.0 16.0 0.00 0.00 0.00 47 1021.4
20260504223606 77 168 5.0 7.0 0.00 0.00 0.00 50 1021.5
20260504223101 76 150 7.0 9.0 0.00 0.00 0.00 50 1021.3
20260504222559 76 137 6.0 11.0 0.00 0.00 0.00 48 1021.7
20260504222056 76 166 8.0 16.0 0.00 0.00 0.00 49 1021.4
20260504221553 77 130 8.0 18.0 0.00 0.00 0.00 47 1021.4
20260504221049 77 185 7.0 16.0 0.00 0.00 0.00 48 1021.7
20260504220546 77 201 3.0 14.0 0.00 0.00 0.00 48 1021.4
20260504220043 77 145 6.0 9.0 0.00 0.00 0.00 49 1021.7
20260504215539 76 122 7.0 11.0 0.00 0.00 0.00 49 1021.7
20260504215037 76 149 11.0 21.0 0.00 0.00 0.00 49 1021.8
20260504214533 77 126 5.0 18.0 0.00 0.00 0.00 50 1021.9
20260504214030 76 146 12.0 16.0 0.00 0.00 0.00 48 1021.8
20260504213526 76 157 4.0 7.0 0.00 0.00 0.00 51 1021.9
20260504213023 76 158 5.0 14.0 0.00 0.00 0.00 51 1022.1
20260504212519 77 162 5.0 18.0 0.00 0.00 0.00 49 1022.2
20260504212017 78 153 10.0 16.0 0.00 0.00 0.00 48 1022.0
20260504211513 77 271 3.0 9.0 0.00 0.00 0.00 48 1022.0
20260504211011 77 185 3.0 16.0 0.00 0.00 0.00 48 1022.2
20260504210508 76 150 9.0 16.0 0.00 0.00 0.00 47 1022.4
20260504210004 76 159 3.0 9.0 0.00 0.00 0.00 50 1022.5
20260504205502 77 122 8.0 14.0 0.00 0.00 0.00 48 1022.8
20260504205000 77 153 2.0 9.0 0.00 0.00 0.00 47 1022.6
20260504204458 77 148 4.0 11.0 0.00 0.00 0.00 49 1022.8
20260504203957 77 293 5.0 14.0 0.00 0.00 0.00 49 1022.9
20260504203454 75 87 7.0 16.0 0.00 0.00 0.00 49 1022.9
20260504202950 76 203 7.0 18.0 0.00 0.00 0.00 49 1023.0
20260504202446 77 166 7.0 14.0 0.00 0.00 0.00 49 1023.1
20260504201943 77 223 8.0 11.0 0.00 0.00 0.00 47 1023.1
20260504201441 77 149 8.0 14.0 0.00 0.00 0.00 49 1023.3
20260504200938 77 173 7.0 14.0 0.00 0.00 0.00 49 1023.3
20260504200435 77 159 5.0 18.0 0.00 0.00 0.00 48 1023.3
20260504195931 76 205 5.0 14.0 0.00 0.00 0.00 48 1023.6
20260504195427 76 156 9.0 21.0 0.00 0.00 0.00 47 1023.4
20260504194924 76 208 6.0 18.0 0.00 0.00 0.00 46 1023.5
20260504194420 76 242 5.0 21.0 0.00 0.00 0.00 48 1023.7
20260504193916 78 178 10.0 11.0 0.00 0.00 0.00 45 1023.7
20260504193414 77 160 3.0 14.0 0.00 0.00 0.00 49 1023.8
20260504192912 77 166 6.0 18.0 0.00 0.00 0.00 47 1023.9
20260504192409 77 131 4.0 7.0 0.00 0.00 0.00 48 1024.2
20260504191908 77 219 5.0 14.0 0.00 0.00 0.00 50 1023.9
20260504191405 77 179 7.0 9.0 0.00 0.00 0.00 48 1024.1
20260504190900 76 4 7.0 11.0 0.00 0.00 0.00 46 1024.4
20260504190356 77 217 4.0 11.0 0.00 0.00 0.00 47 1024.3
20260504185853 75 155 12.0 18.0 0.00 0.00 0.00 49 1024.1
20260504185350 76 134 4.0 9.0 0.00 0.00 0.00 50 1024.4
20260504184846 75 213 7.0 9.0 0.00 0.00 0.00 47 1024.3
20260504184342 76 187 5.0 7.0 0.00 0.00 0.00 51 1024.9
20260504183838 75 157 5.0 7.0 0.00 0.00 0.00 51 1025.0
20260504183336 74 134 5.0 11.0 0.00 0.00 0.00 51 1025.0
20260504182833 77 120 5.0 7.0 0.00 0.00 0.00 49 1024.9
20260504182331 74 220 6.0 11.0 0.00 0.00 0.00 48 1025.0
20260504181827 77 168 2.0 7.0 0.00 0.00 0.00 49 1025.3
20260504181325 76 148 4.0 11.0 0.00 0.00 0.00 51 1025.3
20260504180824 77 127 4.0 18.0 0.00 0.00 0.00 49 1025.3
20260504180322 75 207 4.0 11.0 0.00 0.00 0.00 52 1025.2
20260504175820 75 148 7.0 14.0 0.00 0.00 0.00 48 1025.4
20260504175316 75 138 6.0 11.0 0.00 0.00 0.00 50 1025.5
20260504174815 75 116 7.0 9.0 0.00 0.00 0.00 49 1025.3
20260504174312 74 141 4.0 11.0 0.00 0.00 0.00 51 1025.5
20260504173808 75 193 4.0 11.0 0.00 0.00 0.00 48 1025.4
20260504173305 74 218 2.0 11.0 0.00 0.00 0.00 50 1025.6
20260504172802 74 134 7.0 9.0 0.00 0.00 0.00 49 1025.7
20260504172259 74 165 11.0 16.0 0.00 0.00 0.00 49 1025.9
20260504171754 74 139 5.0 16.0 0.00 0.00 0.00 49 1025.9
20260504171252 75 160 9.0 14.0 0.00 0.00 0.00 49 1025.9
20260504170749 74 139 5.0 7.0 0.00 0.00 0.00 51 1025.8
20260504170246 73 154 5.0 11.0 0.00 0.00 0.00 52 1025.9
20260504160204 71 100 4.0 11.0 0.00 0.00 0.00 57 1027.0
20260504151132 68 157 9.0 14.0 0.00 0.00 0.00 63 1026.9
20260504150630 69 312 4.0 9.0 0.00 0.00 0.00 64 1027.1
20260504150126 68 168 5.0 9.0 0.00 0.00 0.00 64 1026.8
20260504141055 64 114 3.0 9.0 0.00 0.00 0.00 72 1027.2
20260504140551 64 140 2.0 7.0 0.00 0.00 0.00 72 1027.4
20260504130516 58 126 0.0 5.0 0.00 0.00 0.00 82 1027.3
20260504110403 53 108 0.0 0.0 0.00 0.00 0.00 89 1025.9
20260504100320 53 85 2.0 5.0 0.00 0.00 0.00 92 1026.4
20260504081714 54 115 0.0 0.0 0.00 0.00 0.00 91 1026.4
20260504081210 54 116 0.0 0.0 0.00 0.00 0.00 91 1026.7
20260504080706 54 99 0.0 0.0 0.00 0.00 0.00 90 1026.5
20260504080203 54 91 0.0 2.0 0.00 0.00 0.00 90 1026.6
20260504070131 56 126 0.0 0.0 0.00 0.00 0.00 86 1027.2